This is the latest recevied weather packets stored in our database for station/object K1BES. If no packets are shown the sender has not sent any weather packets the latest 10 day(s).
| Time | Temp. | Humidity | Pressure | Rain* | Wind** | Luminosity | Snow |
|---|---|---|---|---|---|---|---|
| 1788357472 | 30° C | 79% | 1018.3 hPa | 0 mm | - | 514 W/m² | - |
| 1788357168 | 30° C | 79% | 1018.1 hPa | 0 mm | - | 509 W/m² | - |
| 1788356868 | 30.56° C | 78% | 1018.4 hPa | 0 mm | - | 487 W/m² | - |
| 1788356563 | 30° C | 80% | 1018.3 hPa | 0 mm | - | 473 W/m² | - |
| 1788356259 | 29.44° C | 81% | 1018.4 hPa | 0 mm | - | 459 W/m² | - |
| 1788355958 | 29.44° C | 83% | 1018.1 hPa | 0 mm | - | 447 W/m² | - |
| 1788355653 | 29.44° C | 83% | 1018.1 hPa | 0 mm | - | 427 W/m² | - |
| 1788355349 | 28.89° C | 84% | 1018.3 hPa | 0 mm | - | 365 W/m² | - |
| 1788355044 | 28.33° C | 85% | 1018.2 hPa | 0 mm | - | 87 W/m² | - |
| 1788354740 | 27.78° C | 87% | 1018.1 hPa | 0 mm | - | 170 W/m² | - |
| 1788354440 | 27.78° C | 89% | 1018 hPa | 0 mm | - | 160 W/m² | - |
| 1788354136 | 27.78° C | 88% | 1018.1 hPa | 0 mm | - | 110 W/m² | - |
| 1788353831 | 27.78° C | 92% | 1018.2 hPa | 0 mm | - | 109 W/m² | - |
| 1788353527 | 26.67° C | 96% | 1018.2 hPa | 0 mm | - | 100 W/m² | - |
| 1788353229 | 26.11° C | 97% | 1018.4 hPa | 0 mm | - | 86 W/m² | - |
| 1788352923 | 25.56° C | 97% | 1018.1 hPa | 0 mm | - | 78 W/m² | - |
| 1788352619 | 25.56° C | 97% | 1018.1 hPa | 0 mm | - | 42 W/m² | - |
| 1788352315 | 25.56° C | 97% | 1018.2 hPa | 0 mm | - | 37 W/m² | - |
| 1788352008 | 25° C | 97% | 1018.4 hPa | 0 mm | - | 33 W/m² | - |
| 1788351705 | 25° C | 97% | 1018.3 hPa | 0 mm | - | 30 W/m² | - |
| 1788351405 | 25° C | 97% | 1018.2 hPa | 0 mm | - | 29 W/m² | - |
| 1788351105 | 25° C | 97% | 1018.3 hPa | 0 mm | - | 29 W/m² | - |
| 1788350801 | 25° C | 97% | 1018.1 hPa | 0 mm | - | 28 W/m² | - |
| 1788350498 | 25° C | 97% | 1018 hPa | 0 mm | - | 26 W/m² | - |
| 1788350197 | 25° C | 97% | 1018 hPa | 0 mm | - | 26 W/m² | - |
* Rain latest hour (hover to see other rain measurements)
** Current wind speed in m/s (hover to see current wind gust speed)